Location: Unspecified
(0.0000°N, 0.0000°E)
Time: 20:55:54
(UTC+00:00)

USA 238 DEB - Pass Details

Date: 03 June 2023
Orbit: 930 x 1283 km, 63.4° (Epoch: 27 September)

Event Time Altitude Azimuth Distance (km) Brightness Sun altitude
Rises 05:00:44 0° 350° (N) 4,174 7.0 -13.3°
Reaches altitude 10° 05:03:38 10° 356° (N) 3,236 6.5 -12.6°
Maximum altitude 05:11:07 46° 67° (ENE) 1,668 5.3 -10.9°
Drops below altitude 10° 05:18:38 10° 138° (SE) 3,259 6.5 -9.1°
Sets 05:21:33 0° 144° (SE) 4,206 7.0 -8.5°
